User: anonymous   Login
Location: ??
(31.9467°N, 34.8903°E)
Time: 02:11:54
(UTC+00:00)
Language:

SAR-Lupe-4 - Orbit

View from above orbital plane
View from above orbital plane
View from above satellite
View from above satellite

Ground track
Ground track

The orbit data is extracted from the following two-line orbital elements,

1 32750U 08014A   21009.74405002 0.00000000  00000-0  00000-0 0    07
2 32750  98.2100 200.8123 0002433 227.3338 132.6660 15.27623347    09
Epoch (UTC): 09 January 2021 17:51:25
Eccentricity: 0.0002433
inclination: 98.2100°
perigee height: 481 km
apogee height: 484 km
right ascension of ascending node: 200.8123°
argument of perigee: 227.3338°
revolutions per day: 15.27623347
mean anomaly at epoch: 132.6660°
orbit number at epoch: 0

The dashed part of the orbit path shows where the satellite is in the earth's shadow,  

DLR